| time (UTC) | temp C | wind direction | speed KPH | gust KPH | rain 1hr cm | rain 24hr cm | rain mn cm | humidity % | barometer mb |
| 20260505063111 | 15 | 263 | 1.6 | 8.0 | 0.00 | 0.00 | 0.00 | 58 | 1016.7 |
| 20260505061556 | 15 | 360 | 1.6 | 8.0 | 0.00 | 0.00 | 0.00 | 58 | 1016.8 |
| 20260505060057 | 15 | 360 | 4.8 | 8.0 | 0.00 | 0.00 | 0.00 | 57 | 1016.9 |
| 20260505054608 | 15 | 360 | 4.8 | 12.9 | 0.00 | 0.00 | 0.00 | 56 | 1016.9 |
| 20260505053100 | 15 | 360 | 4.8 | 14.5 | 0.00 | 0.00 | 0.00 | 57 | 1017.1 |
| 20260505051552 | 15 | 360 | 4.8 | 11.3 | 0.00 | 0.00 | 0.00 | 57 | 1017.2 |
| 20260505050103 | 15 | 144 | 4.8 | 11.3 | 0.00 | 0.00 | 0.00 | 56 | 1017.0 |
| 20260505041557 | 16 | 219 | 1.6 | 6.4 | 0.00 | 0.00 | 0.00 | 52 | 1017.2 |
| 20260505040057 | 17 | 267 | 3.2 | 19.3 | 0.00 | 0.00 | 0.00 | 50 | 1017.1 |
| 20260505034554 | 17 | 205 | 3.2 | 11.3 | 0.00 | 0.00 | 0.00 | 53 | 1017.2 |
| 20260505033053 | 16 | 241 | 1.6 | 6.4 | 0.00 | 0.00 | 0.00 | 53 | 1017.2 |
| 20260505031602 | 17 | 360 | 3.2 | 8.0 | 0.00 | 0.00 | 0.00 | 51 | 1017.3 |
| 20260505030113 | 17 | 360 | 3.2 | 17.7 | 0.00 | 0.00 | 0.00 | 50 | 1017.4 |
| 20260505024603 | 17 | 212 | 3.2 | 9.7 | 0.00 | 0.00 | 0.00 | 51 | 1017.3 |
| 20260505023051 | 18 | 259 | 6.4 | 14.5 | 0.00 | 0.00 | 0.00 | 49 | 1017.3 |
| 20260505021555 | 17 | 200 | 4.8 | 11.3 | 0.00 | 0.00 | 0.00 | 50 | 1017.1 |
| 20260505020056 | 17 | 360 | 3.2 | 12.9 | 0.00 | 0.00 | 0.00 | 49 | 1017.1 |
| 20260505014607 | 18 | 360 | 3.2 | 8.0 | 0.00 | 0.00 | 0.00 | 48 | 1017.0 |
| 20260505013132 | 18 | 198 | 1.6 | 6.4 | 0.00 | 0.00 | 0.00 | 46 | 1017.0 |
| 20260505011603 | 18 | 184 | 3.2 | 11.3 | 0.00 | 0.00 | 0.00 | 45 | 1016.9 |
| 20260505010056 | 19 | 198 | 3.2 | 9.7 | 0.00 | 0.00 | 0.00 | 44 | 1016.7 |
| 20260505004601 | 19 | 199 | 3.2 | 9.7 | 0.00 | 0.00 | 0.00 | 43 | 1016.5 |
| 20260505003051 | 20 | 360 | 3.2 | 11.3 | 0.00 | 0.00 | 0.00 | 42 | 1016.4 |
| 20260505001601 | 20 | 235 | 1.6 | 12.9 | 0.00 | 0.00 | 0.00 | 41 | 1016.2 |
| 20260505000115 | 20 | 200 | 3.2 | 9.7 | 0.00 | 0.00 | 0.00 | 41 | 1016.3 |
| 20260504234555 | 21 | 360 | 3.2 | 16.1 | 0.00 | 0.00 | 0.00 | 40 | 1016.1 |
| 20260504233108 | 21 | 360 | 6.4 | 17.7 | 0.00 | 0.00 | 0.00 | 39 | 1016.0 |
| 20260504231555 | 22 | 232 | 6.4 | 19.3 | 0.00 | 0.00 | 0.00 | 38 | 1015.8 |
| 20260504230052 | 22 | 183 | 8.0 | 24.1 | 0.00 | 0.00 | 0.00 | 37 | 1015.8 |
| 20260504224557 | 22 | 177 | 6.4 | 19.3 | 0.00 | 0.00 | 0.00 | 37 | 1015.9 |
| 20260504223122 | 23 | 209 | 9.7 | 20.9 | 0.00 | 0.00 | 0.00 | 36 | 1015.9 |
| 20260504221554 | 23 | 140 | 4.8 | 17.7 | 0.00 | 0.00 | 0.00 | 36 | 1015.9 |
| 20260504220057 | 23 | 166 | 8.0 | 20.9 | 0.00 | 0.00 | 0.00 | 37 | 1016.0 |
| 20260504214552 | 23 | 232 | 9.7 | 22.5 | 0.00 | 0.00 | 0.00 | 35 | 1016.2 |
| 20260504213103 | 23 | 133 | 6.4 | 17.7 | 0.00 | 0.00 | 0.00 | 35 | 1016.2 |
| 20260504211552 | 23 | 226 | 6.4 | 16.1 | 0.00 | 0.00 | 0.00 | 36 | 1016.2 |
| 20260504210100 | 23 | 202 | 8.0 | 19.3 | 0.00 | 0.00 | 0.00 | 34 | 1016.2 |
| 20260504204557 | 23 | 200 | 8.0 | 19.3 | 0.00 | 0.00 | 0.00 | 36 | 1016.3 |
| 20260504203110 | 23 | 194 | 8.0 | 20.9 | 0.00 | 0.00 | 0.00 | 36 | 1016.4 |
| 20260504201559 | 23 | 252 | 9.7 | 17.7 | 0.00 | 0.00 | 0.00 | 35 | 1016.6 |
| 20260504200057 | 23 | 177 | 6.4 | 20.9 | 0.00 | 0.00 | 0.00 | 34 | 1017.0 |
| 20260504194552 | 23 | 155 | 9.7 | 20.9 | 0.00 | 0.00 | 0.00 | 35 | 1017.1 |
| 20260504193055 | 23 | 148 | 6.4 | 19.3 | 0.00 | 0.00 | 0.00 | 36 | 1017.3 |
| 20260504191558 | 23 | 193 | 4.8 | 19.3 | 0.00 | 0.00 | 0.00 | 35 | 1017.6 |
| 20260504190055 | 23 | 106 | 4.8 | 17.7 | 0.00 | 0.00 | 0.00 | 36 | 1017.6 |
| 20260504184558 | 23 | 235 | 6.4 | 14.5 | 0.00 | 0.00 | 0.00 | 37 | 1017.8 |
| 20260504183053 | 23 | 225 | 4.8 | 19.3 | 0.00 | 0.00 | 0.00 | 38 | 1018.0 |
| 20260504181554 | 23 | 275 | 6.4 | 16.1 | 0.00 | 0.00 | 0.00 | 38 | 1018.2 |
| 20260504180051 | 23 | 165 | 4.8 | 14.5 | 0.00 | 0.00 | 0.00 | 35 | 1018.5 |
| 20260504174559 | 22 | 139 | 9.7 | 20.9 | 0.00 | 0.00 | 0.00 | 39 | 1018.8 |
| 20260504173055 | 22 | 137 | 4.8 | 30.6 | 0.00 | 0.00 | 0.00 | 42 | 1018.9 |
| 20260504171555 | 23 | 294 | 6.4 | 16.1 | 0.00 | 0.00 | 0.00 | 40 | 1019.2 |
| 20260504081552 | 5 | 277 | 1.6 | 4.8 | 0.00 | 0.00 | 0.00 | 90 | 1018.3 |